DGTMR EDWI-EDRA

Flight info

Callsign DGTMR
Flight time 1h 9m
Altitude 3499
Route VFR
Aircraft DA42/L-DGV/A

Departure

Time 2026-05-05 13:30
Airport JadeWeser Airport (EDWI)

Arrival

Time 2026-05-05 14:39
Airport Bad Neuenahr-Ahrweiler Airfield (EDRA)
Time Latitude Longitude Altitude Speed Heading
2026-05-05 13:25 53.50709 8.05226 29 ft 0 kts 27°
2026-05-05 13:27 53.50710 8.05226 29 ft 1 kts 28°
2026-05-05 13:28 53.50708 8.05277 28 ft 9 kts 115°
2026-05-05 13:28 53.50656 8.05354 28 ft 11 kts 127°
2026-05-05 13:28 53.50647 8.05467 31 ft 7 kts 89°
2026-05-05 13:28 53.50618 8.05498 32 ft 3 kts 197°
2026-05-05 13:29 53.50587 8.05479 32 ft 26 kts 199°
2026-05-05 13:29 53.50215 8.05228 33 ft 84 kts 200°
2026-05-05 13:29 53.49595 8.04811 149 ft 102 kts 204°
2026-05-05 13:29 53.48915 8.04407 453 ft 107 kts 198°
2026-05-05 13:30 53.48160 8.03999 781 ft 116 kts 197°
2026-05-05 13:30 53.47394 8.03864 1193 ft 112 kts 169°
2026-05-05 13:30 53.46672 8.04303 1528 ft 111 kts 154°
2026-05-05 13:30 53.45965 8.04758 1906 ft 107 kts 154°
2026-05-05 13:31 53.45251 8.05058 2281 ft 104 kts 162°
2026-05-05 13:31 53.44566 8.05317 2660 ft 99 kts 160°
2026-05-05 13:31 53.43902 8.05525 3043 ft 96 kts 165°
2026-05-05 13:31 53.43234 8.05742 3293 ft 110 kts 164°
2026-05-05 13:32 53.42415 8.06035 3365 ft 127 kts 165°
2026-05-05 13:32 53.41511 8.06353 3451 ft 137 kts 166°
2026-05-05 13:32 53.40538 8.06685 3477 ft 148 kts 166°
2026-05-05 13:32 53.39489 8.06988 3477 ft 157 kts 169°
2026-05-05 13:33 53.38393 8.07251 3477 ft 161 kts 167°
2026-05-05 13:33 53.37277 8.07532 3475 ft 163 kts 168°
2026-05-05 13:33 53.36142 8.07795 3477 ft 166 kts 171°
2026-05-05 13:33 53.34990 8.08047 3475 ft 167 kts 170°
2026-05-05 13:34 53.33835 8.08318 3480 ft 167 kts 169°
2026-05-05 13:34 53.32699 8.08623 3498 ft 165 kts 169°
2026-05-05 13:34 53.31560 8.08865 3498 ft 165 kts 173°
2026-05-05 13:34 53.30433 8.09064 3496 ft 165 kts 172°
2026-05-05 13:35 53.29287 8.09265 3497 ft 166 kts 173°
2026-05-05 13:35 53.28140 8.09451 3497 ft 166 kts 174°
2026-05-05 13:35 53.26992 8.09630 3497 ft 165 kts 173°
2026-05-05 13:35 53.25843 8.09788 3499 ft 166 kts 174°
2026-05-05 13:36 53.24683 8.09882 3500 ft 167 kts 175°
2026-05-05 13:36 53.23515 8.09961 3497 ft 168 kts 176°
2026-05-05 13:36 53.22349 8.10053 3495 ft 168 kts 175°
2026-05-05 13:36 53.21181 8.10141 3494 ft 168 kts 175°
2026-05-05 13:37 53.20013 8.10213 3492 ft 168 kts 175°
2026-05-05 13:37 53.18841 8.10286 3490 ft 168 kts 175°
2026-05-05 13:37 53.17682 8.10383 3494 ft 167 kts 175°
2026-05-05 13:37 53.16541 8.10480 3494 ft 167 kts 176°
2026-05-05 13:38 53.15376 8.10432 3495 ft 168 kts 181°
2026-05-05 13:38 53.14208 8.10332 3496 ft 168 kts 182°
2026-05-05 13:38 53.13039 8.10240 3496 ft 168 kts 181°
2026-05-05 13:38 53.11872 8.10154 3495 ft 167 kts 181°
2026-05-05 13:39 53.10708 8.10058 3490 ft 167 kts 184°
2026-05-05 13:39 53.09566 8.09700 3487 ft 167 kts 194°
2026-05-05 13:39 53.08458 8.09116 3451 ft 169 kts 198°
2026-05-05 13:39 53.07326 8.08458 3320 ft 175 kts 198°
2026-05-05 13:40 53.06166 8.07769 3193 ft 179 kts 198°
2026-05-05 13:40 53.05002 8.06977 3062 ft 182 kts 203°
2026-05-05 13:40 53.03845 8.06105 2929 ft 182 kts 203°
2026-05-05 13:40 53.02688 8.05233 2804 ft 184 kts 204°
2026-05-05 13:41 53.01527 8.04307 2674 ft 185 kts 208°
2026-05-05 13:41 53.00423 8.03197 2545 ft 185 kts 213°
2026-05-05 13:41 52.99347 8.02042 2419 ft 187 kts 210°
2026-05-05 13:41 52.98192 8.01028 2289 ft 185 kts 206°
2026-05-05 13:42 52.97030 8.00122 2160 ft 185 kts 204°
2026-05-05 13:42 52.95860 7.99258 2028 ft 183 kts 203°
2026-05-05 13:42 52.94716 7.98469 2003 ft 177 kts 201°
2026-05-05 13:42 52.93590 7.97730 2005 ft 172 kts 201°
2026-05-05 13:43 52.92471 7.97078 2006 ft 170 kts 198°
2026-05-05 13:43 52.91354 7.96447 2010 ft 170 kts 198°
2026-05-05 13:43 52.90220 7.95808 2015 ft 174 kts 197°
2026-05-05 13:43 52.89046 7.95199 2009 ft 178 kts 194°
2026-05-05 13:44 52.87855 7.94596 1991 ft 180 kts 197°
2026-05-05 13:44 52.86739 7.93621 2000 ft 183 kts 214°
2026-05-05 13:44 52.85585 7.92749 1990 ft 181 kts 200°
2026-05-05 13:44 52.84404 7.92095 1989 ft 176 kts 195°
2026-05-05 13:45 52.83236 7.91492 1987 ft 177 kts 198°
2026-05-05 13:45 52.82049 7.90891 2015 ft 181 kts 195°
2026-05-05 13:45 52.81023 7.89733 2020 ft 181 kts 218°
2026-05-05 13:45 52.79982 7.88534 1958 ft 181 kts 214°
2026-05-05 13:46 52.79084 7.87205 2039 ft 169 kts 230°
2026-05-05 13:46 52.78314 7.85722 1836 ft 174 kts 226°
2026-05-05 13:46 52.77470 7.84357 1891 ft 165 kts 226°
2026-05-05 13:46 52.76680 7.83034 1978 ft 159 kts 225°
2026-05-05 13:47 52.75906 7.81735 1988 ft 160 kts 226°
2026-05-05 13:47 52.75113 7.80409 2001 ft 164 kts 224°
2026-05-05 13:47 52.74277 7.79106 2002 ft 166 kts 224°
2026-05-05 13:47 52.73419 7.77792 1998 ft 170 kts 223°
2026-05-05 13:48 52.72555 7.76460 2003 ft 171 kts 224°
2026-05-05 13:48 52.71678 7.75126 1998 ft 171 kts 223°
2026-05-05 13:48 52.70800 7.73786 2001 ft 173 kts 223°
2026-05-05 13:48 52.69947 7.72395 1994 ft 172 kts 226°
2026-05-05 13:49 52.69120 7.70981 1996 ft 171 kts 228°
2026-05-05 13:49 52.68306 7.69536 1999 ft 172 kts 228°
2026-05-05 13:49 52.67488 7.68078 1994 ft 172 kts 228°
2026-05-05 13:49 52.66681 7.66634 1997 ft 171 kts 228°
2026-05-05 13:50 52.65877 7.65193 1995 ft 171 kts 228°
2026-05-05 13:50 52.65072 7.63736 1994 ft 174 kts 229°
2026-05-05 13:50 52.64257 7.62253 1989 ft 174 kts 229°
2026-05-05 13:50 52.63450 7.60818 1991 ft 172 kts 227°
2026-05-05 13:51 52.62639 7.59382 1987 ft 171 kts 227°
2026-05-05 13:51 52.61806 7.57984 1982 ft 169 kts 226°
2026-05-05 13:51 52.60979 7.56602 1993 ft 171 kts 226°
2026-05-05 13:51 52.60129 7.55216 1987 ft 172 kts 223°
2026-05-05 13:52 52.59211 7.53957 1985 ft 170 kts 219°
2026-05-05 13:52 52.58303 7.52735 1985 ft 168 kts 220°
2026-05-05 13:52 52.57398 7.51535 1988 ft 167 kts 219°
2026-05-05 13:52 52.56493 7.50332 1988 ft 168 kts 219°
2026-05-05 13:53 52.55553 7.49187 2002 ft 167 kts 212°
2026-05-05 13:53 52.54544 7.48196 2010 ft 172 kts 210°
2026-05-05 13:53 52.53502 7.47196 2004 ft 176 kts 209°
2026-05-05 13:53 52.52434 7.46211 1993 ft 175 kts 208°
2026-05-05 13:54 52.51390 7.45281 1998 ft 171 kts 208°
2026-05-05 13:54 52.50352 7.44347 1996 ft 169 kts 208°
2026-05-05 13:54 52.49308 7.43480 1998 ft 168 kts 204°
2026-05-05 13:54 52.48241 7.42677 1998 ft 169 kts 203°
2026-05-05 13:55 52.47176 7.41872 1997 ft 168 kts 202°
2026-05-05 13:55 52.46095 7.41133 1998 ft 168 kts 200°
2026-05-05 13:55 52.45010 7.40418 1998 ft 168 kts 200°
2026-05-05 13:55 52.43929 7.39700 1993 ft 167 kts 200°
2026-05-05 13:56 52.42848 7.39028 1995 ft 166 kts 198°
2026-05-05 13:56 52.41758 7.38400 1995 ft 165 kts 197°
2026-05-05 13:56 52.40677 7.37778 1996 ft 164 kts 197°
2026-05-05 13:56 52.39596 7.37165 1995 ft 165 kts 197°
2026-05-05 13:57 52.38524 7.36556 1998 ft 166 kts 197°
2026-05-05 13:57 52.37434 7.35937 1993 ft 165 kts 197°
2026-05-05 13:57 52.36348 7.35305 1996 ft 166 kts 198°
2026-05-05 13:57 52.35255 7.34686 1997 ft 166 kts 197°
2026-05-05 13:58 52.34161 7.34060 1995 ft 167 kts 197°
2026-05-05 13:58 52.33066 7.33437 1993 ft 166 kts 197°
2026-05-05 13:58 52.31969 7.32854 1991 ft 165 kts 193°
2026-05-05 13:58 52.30851 7.32419 1993 ft 165 kts 191°
2026-05-05 13:59 52.28601 7.31533 2001 ft 168 kts 191°
2026-05-05 13:59 52.27464 7.31069 2002 ft 169 kts 191°
2026-05-05 14:00 52.25161 7.30222 1996 ft 169 kts 188°
2026-05-05 14:00 52.24395 7.29977 2000 ft 169 kts 188°
2026-05-05 14:00 52.22859 7.29466 1994 ft 170 kts 188°
2026-05-05 14:00 52.21704 7.29080 1995 ft 168 kts 189°
2026-05-05 14:01 52.20557 7.28701 1999 ft 169 kts 188°
2026-05-05 14:01 52.19406 7.28316 1996 ft 168 kts 188°
2026-05-05 14:01 52.18258 7.27940 1994 ft 168 kts 187°
2026-05-05 14:01 52.17111 7.27639 1991 ft 165 kts 184°
2026-05-05 14:02 52.15974 7.27437 1996 ft 164 kts 181°
2026-05-05 14:02 52.14834 7.27273 1992 ft 165 kts 181°
2026-05-05 14:02 52.13683 7.27123 1989 ft 166 kts 181°
2026-05-05 14:02 52.12532 7.26968 1989 ft 165 kts 181°
2026-05-05 14:03 52.11775 7.26865 1986 ft 164 kts 181°
2026-05-05 14:03 52.10643 7.26733 1991 ft 164 kts 181°
2026-05-05 14:03 52.09500 7.26601 1992 ft 165 kts 181°
2026-05-05 14:03 52.08356 7.26458 1982 ft 163 kts 182°
2026-05-05 14:04 52.07228 7.26320 1985 ft 162 kts 181°
2026-05-05 14:04 52.06102 7.26188 1994 ft 163 kts 181°
2026-05-05 14:04 52.04967 7.26034 1987 ft 164 kts 181°
2026-05-05 14:04 52.03831 7.25880 1988 ft 162 kts 180°
2026-05-05 14:05 52.02701 7.25796 1991 ft 163 kts 179°
2026-05-05 14:05 52.01584 7.25715 1990 ft 163 kts 179°
2026-05-05 14:05 52.00460 7.25631 1987 ft 161 kts 179°
2026-05-05 14:05 51.99338 7.25537 1985 ft 162 kts 179°
2026-05-05 14:06 51.98197 7.25439 1987 ft 167 kts 178°
2026-05-05 14:06 51.97029 7.25383 1982 ft 167 kts 178°
2026-05-05 14:06 51.95863 7.25314 1982 ft 168 kts 178°
2026-05-05 14:06 51.94700 7.25234 1983 ft 167 kts 179°
2026-05-05 14:07 51.93534 7.25178 1981 ft 168 kts 178°
2026-05-05 14:07 51.92370 7.25144 2026 ft 166 kts 178°
2026-05-05 14:07 51.91223 7.25086 2100 ft 164 kts 178°
2026-05-05 14:07 51.90098 7.25001 2172 ft 163 kts 178°
2026-05-05 14:08 51.88975 7.24909 2250 ft 160 kts 178°
2026-05-05 14:08 51.87866 7.24810 2303 ft 160 kts 178°
2026-05-05 14:08 51.86748 7.24711 2297 ft 161 kts 179°
2026-05-05 14:08 51.85630 7.24686 2290 ft 161 kts 176°
2026-05-05 14:09 51.84515 7.24684 2297 ft 161 kts 174°
2026-05-05 14:09 51.83394 7.24679 2299 ft 161 kts 175°
2026-05-05 14:09 51.82266 7.24692 2297 ft 162 kts 175°
2026-05-05 14:09 51.81142 7.24724 2302 ft 162 kts 174°
2026-05-05 14:10 51.80016 7.24760 2302 ft 161 kts 175°
2026-05-05 14:10 51.78890 7.24787 2304 ft 162 kts 175°
2026-05-05 14:10 51.77764 7.24822 2299 ft 161 kts 175°
2026-05-05 14:10 51.76649 7.24854 2300 ft 161 kts 175°
2026-05-05 14:11 51.75528 7.24891 2289 ft 160 kts 174°
2026-05-05 14:11 51.74421 7.24972 2296 ft 159 kts 175°
2026-05-05 14:11 51.73309 7.25079 2233 ft 161 kts 173°
2026-05-05 14:11 51.72201 7.25177 2162 ft 162 kts 174°
2026-05-05 14:12 51.71065 7.25275 2084 ft 164 kts 173°
2026-05-05 14:12 51.69913 7.25404 2004 ft 167 kts 172°
2026-05-05 14:12 51.68759 7.25543 2010 ft 166 kts 172°
2026-05-05 14:12 51.67612 7.25698 1993 ft 164 kts 172°
2026-05-05 14:13 51.66477 7.25835 1997 ft 163 kts 172°
2026-05-05 14:13 51.65336 7.26003 1984 ft 166 kts 173°
2026-05-05 14:13 51.64190 7.26161 1991 ft 163 kts 173°
2026-05-05 14:13 51.63069 7.26328 1992 ft 161 kts 172°
2026-05-05 14:14 51.61960 7.26498 1996 ft 160 kts 172°
2026-05-05 14:14 51.60856 7.26665 1993 ft 158 kts 172°
2026-05-05 14:14 51.59771 7.26831 1994 ft 159 kts 172°
2026-05-05 14:14 51.58692 7.27000 2103 ft 152 kts 172°
2026-05-05 14:15 51.57659 7.27162 2228 ft 146 kts 171°
2026-05-05 14:15 51.56657 7.27306 2363 ft 144 kts 172°
2026-05-05 14:15 51.55661 7.27430 2473 ft 142 kts 173°
2026-05-05 14:15 51.54696 7.27553 2615 ft 138 kts 172°
2026-05-05 14:16 51.53733 7.27698 2741 ft 139 kts 172°
2026-05-05 14:16 51.52770 7.27851 2874 ft 139 kts 172°
2026-05-05 14:16 51.51808 7.28002 2999 ft 142 kts 172°
2026-05-05 14:16 51.50819 7.28157 3128 ft 143 kts 172°
2026-05-05 14:17 51.49821 7.28319 3247 ft 144 kts 172°
2026-05-05 14:17 51.48809 7.28485 3277 ft 149 kts 172°
2026-05-05 14:17 51.47762 7.28657 3274 ft 152 kts 172°
2026-05-05 14:17 51.46699 7.28835 3272 ft 154 kts 172°
2026-05-05 14:18 51.45630 7.29021 3287 ft 155 kts 172°
2026-05-05 14:18 51.44554 7.29205 3287 ft 156 kts 172°
2026-05-05 14:18 51.43476 7.29394 3286 ft 156 kts 172°
2026-05-05 14:18 51.42392 7.29581 3278 ft 156 kts 172°
2026-05-05 14:19 51.41309 7.29769 3283 ft 158 kts 172°
2026-05-05 14:19 51.40212 7.29961 3283 ft 159 kts 172°
2026-05-05 14:19 51.39107 7.30157 3273 ft 160 kts 172°
2026-05-05 14:19 51.38011 7.30352 3273 ft 161 kts 172°
2026-05-05 14:20 51.36899 7.30541 3269 ft 161 kts 172°
2026-05-05 14:20 51.35787 7.30730 3276 ft 161 kts 172°
2026-05-05 14:20 51.34677 7.30920 3276 ft 160 kts 172°
2026-05-05 14:20 51.33572 7.31129 3273 ft 160 kts 172°
2026-05-05 14:21 51.32435 7.31308 3143 ft 167 kts 178°
2026-05-05 14:21 51.31262 7.31263 3022 ft 171 kts 184°
2026-05-05 14:21 51.30068 7.31061 2892 ft 173 kts 187°
2026-05-05 14:21 51.28872 7.30784 2760 ft 174 kts 188°
2026-05-05 14:22 51.27667 7.30471 2632 ft 176 kts 189°
2026-05-05 14:22 51.26453 7.30107 2511 ft 178 kts 189°
2026-05-05 14:22 51.25230 7.29730 2377 ft 179 kts 190°
2026-05-05 14:22 51.24008 7.29372 2270 ft 177 kts 190°
2026-05-05 14:23 51.22825 7.29013 2271 ft 175 kts 190°
2026-05-05 14:23 51.21629 7.28653 2265 ft 174 kts 189°
2026-05-05 14:23 51.20437 7.28279 2265 ft 175 kts 189°
2026-05-05 14:23 51.19244 7.27878 2243 ft 178 kts 190°
2026-05-05 14:24 51.18043 7.27427 2262 ft 179 kts 192°
2026-05-05 14:24 51.16835 7.26973 2291 ft 177 kts 193°
2026-05-05 14:24 51.15625 7.26520 2263 ft 176 kts 191°
2026-05-05 14:24 51.14445 7.26091 2266 ft 173 kts 192°
2026-05-05 14:25 51.13283 7.25643 2268 ft 173 kts 192°
2026-05-05 14:25 51.12118 7.25200 2266 ft 172 kts 192°
2026-05-05 14:25 51.10963 7.24776 2254 ft 167 kts 193°
2026-05-05 14:25 51.09839 7.24399 2257 ft 164 kts 192°
2026-05-05 14:26 51.08719 7.24010 2261 ft 165 kts 194°
2026-05-05 14:26 51.07615 7.23595 2257 ft 165 kts 195°
2026-05-05 14:26 51.06503 7.23150 2255 ft 165 kts 195°
2026-05-05 14:26 51.05392 7.22698 2259 ft 165 kts 195°
2026-05-05 14:27 51.04289 7.22216 2252 ft 164 kts 197°
2026-05-05 14:27 51.03197 7.21736 2256 ft 162 kts 195°
2026-05-05 14:27 51.02111 7.21242 2258 ft 162 kts 197°
2026-05-05 14:27 51.01033 7.20731 2250 ft 161 kts 197°
2026-05-05 14:28 50.99955 7.20229 2255 ft 162 kts 197°
2026-05-05 14:28 50.98866 7.19731 2259 ft 164 kts 197°
2026-05-05 14:28 50.97768 7.19232 2248 ft 164 kts 197°
2026-05-05 14:28 50.96671 7.18737 2253 ft 164 kts 197°
2026-05-05 14:29 50.95578 7.18227 2251 ft 163 kts 197°
2026-05-05 14:29 50.94494 7.17693 2248 ft 163 kts 198°
2026-05-05 14:29 50.93423 7.17165 2250 ft 162 kts 198°
2026-05-05 14:29 50.92341 7.16630 2249 ft 163 kts 198°
2026-05-05 14:30 50.91245 7.16086 2172 ft 166 kts 198°
2026-05-05 14:30 50.90127 7.15538 2101 ft 171 kts 198°
2026-05-05 14:30 50.88980 7.14987 2021 ft 173 kts 198°
2026-05-05 14:30 50.87833 7.14426 1952 ft 171 kts 198°
2026-05-05 14:31 50.86720 7.13861 1952 ft 165 kts 199°
2026-05-05 14:31 50.85648 7.13260 1953 ft 161 kts 201°
2026-05-05 14:31 50.84606 7.12624 1955 ft 160 kts 202°
2026-05-05 14:31 50.83564 7.11986 1954 ft 161 kts 202°
2026-05-05 14:32 50.82531 7.11360 1962 ft 162 kts 203°
2026-05-05 14:32 50.81469 7.10708 1960 ft 164 kts 203°
2026-05-05 14:32 50.80411 7.10025 1955 ft 163 kts 204°
2026-05-05 14:32 50.79362 7.09327 1956 ft 164 kts 203°
2026-05-05 14:33 50.78315 7.08620 1955 ft 163 kts 205°
2026-05-05 14:33 50.77246 7.08033 1944 ft 163 kts 187°
2026-05-05 14:33 50.76121 7.08040 1955 ft 162 kts 177°
2026-05-05 14:33 50.75002 7.08184 1956 ft 162 kts 174°
2026-05-05 14:34 50.73871 7.08355 1909 ft 165 kts 174°
2026-05-05 14:34 50.72725 7.08549 1864 ft 167 kts 172°
2026-05-05 14:34 50.71563 7.08816 1815 ft 169 kts 171°
2026-05-05 14:34 50.70388 7.09102 1757 ft 171 kts 172°
2026-05-05 14:35 50.69224 7.09396 1758 ft 166 kts 171°
2026-05-05 14:35 50.68111 7.09675 1755 ft 158 kts 172°
2026-05-05 14:35 50.67048 7.09949 1752 ft 151 kts 171°
2026-05-05 14:35 50.66041 7.10222 1745 ft 143 kts 169°
2026-05-05 14:36 50.65090 7.10549 1737 ft 139 kts 169°
2026-05-05 14:36 50.64143 7.10883 1692 ft 139 kts 168°
2026-05-05 14:36 50.63184 7.11228 1640 ft 143 kts 168°
2026-05-05 14:36 50.62220 7.11569 1598 ft 143 kts 168°
2026-05-05 14:37 50.61251 7.11916 1596 ft 139 kts 168°
2026-05-05 14:37 50.60338 7.12247 1593 ft 131 kts 168°
2026-05-05 14:37 50.59492 7.12545 1599 ft 117 kts 168°
2026-05-05 14:37 50.58749 7.12819 1594 ft 104 kts 165°
2026-05-05 14:38 50.58143 7.13369 1573 ft 100 kts 135°
2026-05-05 14:38 50.57656 7.14213 1434 ft 113 kts 128°
2026-05-05 14:38 50.57133 7.15116 1433 ft 110 kts 137°
2026-05-05 14:38 50.56556 7.15692 1492 ft 94 kts 160°
2026-05-05 14:39 50.55904 7.15732 1393 ft 91 kts 201°
2026-05-05 14:39 50.55532 7.15106 1044 ft 76 kts 276°
2026-05-05 14:39 50.55672 7.14302 716 ft 76 kts 291°
2026-05-05 14:39 50.55792 7.13670 656 ft 27 kts 284°
2026-05-05 14:40 50.55813 7.13536 656 ft 6 kts 267°
2026-05-05 14:40 50.55779 7.13510 657 ft 6 kts 143°
2026-05-05 14:40 50.55763 7.13556 657 ft 0 kts 72°
2026-05-05 14:40 50.55757 7.13591 657 ft 4 kts 109°
2026-05-05 14:41 50.55744 7.13632 656 ft 4 kts 163°
2026-05-05 14:41 50.55739 7.13634 656 ft 0 kts 184°